User: anonymous   Login
Location: Campillo
(40.8621°N, 4.2488°W)
Time: 16:29:12
(UTC+00:00)
Language:

Cosmos 2228 Rocket - Orbit

View from above orbital plane
View from above orbital plane
View from above satellite
View from above satellite

Ground track
Ground track

The orbit data is extracted from the following two-line orbital elements,

1 22287U 92094B   21211.16649315  .00000078  00000-0  75385-5 0  9995
2 22287  82.5254 117.9334 0026211  88.2970 272.1244 14.78188530540728
Epoch (UTC): 30 July 2021 03:59:45
Eccentricity: 0.0026211
inclination: 82.5254°
perigee height: 616 km
apogee height: 653 km
right ascension of ascending node: 117.9334°
argument of perigee: 88.2970°
revolutions per day: 14.78188530
mean anomaly at epoch: 272.1244°
orbit number at epoch: 54072

The dashed part of the orbit path shows where the satellite is in the earth's shadow,  

DLR